FW3855 Weather Reports


time (UTC)temp
C
wind
direction
speed
KPH
gust
KPH
rain 1hr
cm
rain 24hr
cm
rain mn
cm
humidity
%
barometer
mb
20260509080233 25 202 9.7 24.1 0.00 0.00 0.00 4 1015.8
20260509075728 25 244 9.7 29.0 0.00 0.00 0.00 4 1015.8
20260509075225 25 206 8.0 29.0 0.00 0.00 0.00 4 1015.9
20260509074712 25 196 8.0 19.3 0.00 0.00 0.00 3 1015.9
20260509074208 25 233 8.0 24.1 0.00 0.00 0.00 3 1015.9
20260509073702 25 282 8.0 24.1 0.00 0.00 0.00 3 1015.8
20260509073159 25 227 8.0 16.1 0.00 0.00 0.00 3 1015.9
20260509072652 25 184 8.0 19.3 0.00 0.00 0.00 3 1015.9
20260509072142 25 225 6.4 17.7 0.00 0.00 0.00 3 1015.9
20260509071636 25 154 4.8 14.5 0.00 0.00 0.00 3 1015.9
20260509070622 25 302 8.0 20.9 0.00 0.00 0.00 3 1015.9
20260509070127 25 221 8.0 20.9 0.00 0.00 0.00 3 1015.9
20260509065114 25 268 6.4 19.3 0.00 0.00 0.00 3 1015.9
20260509064109 25 215 8.0 17.7 0.00 0.00 0.00 3 1015.9
20260509063612 25 178 9.7 22.5 0.00 0.00 0.00 3 1015.9
20260509063109 25 193 11.3 29.0 0.00 0.00 0.00 3 1015.9
20260509062611 25 162 9.7 29.0 0.00 0.00 0.00 3 1016.0
20260509062107 25 184 6.4 25.7 0.00 0.00 0.00 3 1015.9
20260509061632 25 223 4.8 16.1 0.00 0.00 0.00 3 1015.9
20260509060612 25 159 8.0 25.7 0.00 0.00 0.00 3 1015.9
20260509060111 25 193 8.0 22.5 0.00 0.00 0.00 3 1015.9
20260509055616 25 215 9.7 22.5 0.00 0.00 0.00 3 1015.9
20260509055110 25 172 9.7 24.1 0.00 0.00 0.00 3 1016.0
20260509054609 25 175 8.0 24.1 0.00 0.00 0.00 3 1016.0
20260509054106 25 179 8.0 19.3 0.00 0.00 0.00 3 1016.0
20260509053613 25 223 8.0 19.3 0.00 0.00 0.00 3 1016.0
20260509053102 25 98 6.4 17.7 0.00 0.00 0.00 4 1016.1
20260509052609 25 160 8.0 19.3 0.00 0.00 0.00 4 1016.0
20260509052056 25 183 8.0 19.3 0.00 0.00 0.00 3 1016.1
20260509051557 25 252 9.7 24.1 0.00 0.00 0.00 4 1016.1
20260509051057 25 196 9.7 24.1 0.00 0.00 0.00 4 1016.2
20260509050553 25 143 6.4 16.1 0.00 0.00 0.00 4 1016.1
20260509050058 25 212 6.4 19.3 0.00 0.00 0.00 4 1016.1
20260509045554 25 163 6.4 19.3 0.00 0.00 0.00 5 1016.1
20260509045053 25 241 4.8 12.9 0.00 0.00 0.00 5 1016.1
20260509044553 25 161 4.8 12.9 0.00 0.00 0.00 5 1016.1
20260509044047 25 196 4.8 12.9 0.00 0.00 0.00 5 1016.1
20260509043549 25 165 4.8 12.9 0.00 0.00 0.00 5 1016.0
20260509043052 25 180 6.4 17.7 0.00 0.00 0.00 6 1016.0
20260509042546 25 181 6.4 19.3 0.00 0.00 0.00 5 1016.0
20260509042047 25 193 4.8 19.3 0.00 0.00 0.00 5 1015.9
20260509041545 25 230 4.8 16.1 0.00 0.00 0.00 6 1015.8
20260509041048 25 176 4.8 16.1 0.00 0.00 0.00 6 1015.8
20260509040545 25 236 3.2 8.0 0.00 0.00 0.00 6 1015.8
20260509040045 25 218 4.8 19.3 0.00 0.00 0.00 6 1015.7
20260509035046 25 127 3.2 12.9 0.00 0.00 0.00 6 1015.7
20260509034546 25 236 3.2 12.9 0.00 0.00 0.00 6 1015.6
20260509034044 25 199 3.2 9.7 0.00 0.00 0.00 6 1015.4
20260509033554 26 182 4.8 9.7 0.00 0.00 0.00 6 1015.4
20260509033045 26 202 6.4 16.1 0.00 0.00 0.00 6 1015.3
20260509032548 26 245 4.8 16.1 0.00 0.00 0.00 5 1015.3
20260509032045 26 238 3.2 12.9 0.00 0.00 0.00 6 1015.2
20260509031047 26 250 3.2 11.3 0.00 0.00 0.00 6 1015.1
20260509030544 26 311 1.6 9.7 0.00 0.00 0.00 6 1015.1
20260509030043 26 219 1.6 8.0 0.00 0.00 0.00 6 1015.1
20260509025551 26 207 3.2 12.9 0.00 0.00 0.00 6 1015.0
20260509025044 26 244 4.8 12.9 0.00 0.00 0.00 6 1015.0
20260509023601 27 243 4.8 16.1 0.00 0.00 0.00 5 1014.9
20260509022552 27 53 6.4 14.5 0.00 0.00 0.00 5 1014.6
20260509022051 27 262 6.4 14.5 0.00 0.00 0.00 5 1014.6
20260509020035 28 245 1.6 8.0 0.00 0.00 0.00 3 1014.5
20260509015534 28 290 1.6 11.3 0.00 0.00 0.00 3 1014.5
20260509015033 28 289 3.2 11.3 0.00 0.00 0.00 2 1014.4
20260509014532 29 229 3.2 11.3 0.00 0.00 0.00 2 1014.4
20260509014040 30 310 4.8 14.5 0.00 0.00 0.00 1 1014.3
20260509013534 30 287 4.8 14.5 0.00 0.00 0.00 1 1014.3
20260509013036 30 307 3.2 11.3 0.00 0.00 0.00 1 1014.3
20260509012034 30 294 6.4 14.5 0.00 0.00 0.00 1 1014.3
20260509010533 30 3 6.4 16.1 0.00 0.00 0.00 1 1014.3
20260509010029 30 294 6.4 16.1 0.00 0.00 0.00 1 1014.4
20260509005524 30 235 6.4 16.1 0.00 0.00 0.00 1 1014.2
20260509005020 30 20 4.8 14.5 0.00 0.00 0.00 1 1014.3
20260509004512 30 309 6.4 12.9 0.00 0.00 0.00 1 1014.3
20260509004007 31 298 8.0 24.1 0.00 0.00 0.00 1 1014.3
20260509003501 31 309 9.7 24.1 0.00 0.00 0.00 1 1014.5
20260509003002 31 283 6.4 24.1 0.00 0.00 0.00 1 1014.4
20260509002447 31 332 3.2 14.5 0.00 0.00 0.00 1 1014.4
20260509001941 31 327 4.8 16.1 0.00 0.00 0.00 1 1014.3
20260509001436 31 303 8.0 20.9 0.00 0.00 0.00 1 1014.4
20260509000930 31 314 6.4 20.9 0.00 0.00 0.00 1 1014.5
20260509000425 31 306 6.4 16.1 0.00 0.00 0.00 1 1014.4
20260508235919 31 285 9.7 19.3 0.00 0.00 0.00 1 1014.5
20260508235413 31 311 8.0 20.9 0.00 0.00 0.00 1 1014.5
20260508234907 31 358 6.4 20.9 0.00 0.00 0.00 1 1014.5
20260508233347 31 293 4.8 11.3 0.00 0.00 0.00 1 1014.6
20260508232843 31 330 8.0 22.5 0.00 0.00 0.00 1 1014.5
20260508231830 31 285 8.0 17.7 0.00 0.00 0.00 1 1014.6
20260508230312 31 290 6.4 14.5 0.00 0.00 0.00 1 1014.8
20260508225306 31 278 11.3 24.1 0.00 0.00 0.00 1 1014.9
20260508224755 31 288 8.0 24.1 0.00 0.00 0.00 1 1014.8
20260508224247 31 314 6.4 14.5 0.00 0.00 0.00 1 1014.8
20260508223744 31 354 6.4 14.5 0.00 0.00 0.00 1 1014.9
20260508223236 31 94 8.0 17.7 0.00 0.00 0.00 1 1014.9
20260508222729 31 309 11.3 22.5 0.00 0.00 0.00 1 1015.1
20260508221213 31 31 9.7 20.9 0.00 0.00 0.00 1 1015.1
20260508220706 31 319 9.7 25.7 0.00 0.00 0.00 1 1015.2
20260508215653 31 318 8.0 19.3 0.00 0.00 0.00 1 1015.2
20260508215147 31 330 6.4 17.7 0.00 0.00 0.00 1 1015.4
20260508214641 31 340 8.0 17.7 0.00 0.00 0.00 1 1015.4
20260508214136 31 333 8.0 25.7 0.00 0.00 0.00 1 1015.6
20260508213632 31 340 4.8 25.7 0.00 0.00 0.00 1 1015.6
20260508212617 31 316 6.4 14.5 0.00 0.00 0.00 1 1015.9
20260508212112 31 259 8.0 24.1 0.00 0.00 0.00 1 1016.0
20260508211605 31 290 9.7 24.1 0.00 0.00 0.00 1 1016.0
20260508211100 31 340 6.4 16.1 0.00 0.00 0.00 1 1016.0
20260508210553 31 10 4.8 17.7 0.00 0.00 0.00 1 1016.1
20260508210049 31 287 6.4 17.7 0.00 0.00 0.00 1 1016.2
20260508205541 31 124 6.4 16.1 0.00 0.00 0.00 1 1016.4
20260508205038 31 162 8.0 24.1 0.00 0.00 0.00 1 1016.4
20260508203521 30 203 8.0 17.7 0.00 0.00 0.00 1 1016.6
20260508202507 30 56 9.7 22.5 0.00 0.00 0.00 1 1016.5
20260508201959 30 347 9.7 22.5 0.00 0.00 0.00 1 1016.5
20260508200442 30 293 8.0 22.5 0.00 0.00 0.00 1 1016.7
20260508195936 30 259 9.7 22.5 0.00 0.00 0.00 1 1016.8
20260508195429 30 303 9.7 22.5 0.00 0.00 0.00 1 1016.8
20260508194926 30 17 8.0 22.5 0.00 0.00 0.00 1 1016.8
20260508193911 30 291 8.0 19.3 0.00 0.00 0.00 1 1016.8
20260508193406 30 280 8.0 19.3 0.00 0.00 0.00 1 1016.9
20260508192901 30 6 6.4 16.1 0.00 0.00 0.00 2 1016.9
20260508192354 30 317 4.8 14.5 0.00 0.00 0.00 1 1017.0
20260508191352 30 45 6.4 22.5 0.00 0.00 0.00 2 1017.0
20260508190853 29 283 6.4 22.5 0.00 0.00 0.00 2 1017.0
20260508190354 29 296 9.7 22.5 0.00 0.00 0.00 2 1017.2
20260508185850 29 11 9.7 22.5 0.00 0.00 0.00 2 1017.2
20260508185350 30 281 8.0 17.7 0.00 0.00 0.00 2 1017.2
20260508184853 29 294 9.7 30.6 0.00 0.00 0.00 2 1017.3
20260508184351 29 5 6.4 30.6 0.00 0.00 0.00 2 1017.4
20260508183853 28 249 8.0 22.5 0.00 0.00 0.00 3 1017.3
20260508183349 28 229 11.3 24.1 0.00 0.00 0.00 3 1017.4
20260508182854 28 314 9.7 24.1 0.00 0.00 0.00 2 1017.5
20260508182354 28 291 8.0 19.3 0.00 0.00 0.00 2 1017.4
20260508181851 28 287 6.4 17.7 0.00 0.00 0.00 2 1017.4
20260508180848 28 259 6.4 17.7 0.00 0.00 0.00 2 1017.5
20260508180348 28 303 6.4 22.5 0.00 0.00 0.00 2 1017.6
20260508175843 28 274 8.0 22.5 0.00 0.00 0.00 2 1017.6
20260508175344 28 271 8.0 20.9 0.00 0.00 0.00 3 1017.6
20260508174344 28 339 6.4 14.5 0.00 0.00 0.00 2 1017.6
20260508173847 28 198 6.4 14.5 0.00 0.00 0.00 3 1017.6
20260508172844 27 309 6.4 17.7 0.00 0.00 0.00 3 1017.6
20260508171843 28 291 4.8 17.7 0.00 0.00 0.00 3 1017.6
20260508171344 28 195 3.2 11.3 0.00 0.00 0.00 3 1017.6
20260508170847 27 300 4.8 12.9 0.00 0.00 0.00 3 1017.6
20260508165850 27 288 4.8 12.9 0.00 0.00 0.00 4 1017.6
20260508165350 27 287 4.8 16.1 0.00 0.00 0.00 4 1017.7
20260508164842 27 294 3.2 16.1 0.00 0.00 0.00 3 1017.7
20260508164343 27 250 3.2 12.9 0.00 0.00 0.00 4 1017.7
20260508163340 27 264 4.8 11.3 0.00 0.00 0.00 4 1017.7
20260508162839 27 262 4.8 16.1 0.00 0.00 0.00 4 1017.6
20260508162338 27 326 4.8 16.1 0.00 0.00 0.00 4 1017.6
20260508161841 27 258 4.8 14.5 0.00 0.00 0.00 4 1017.5
20260508161337 27 274 3.2 14.5 0.00 0.00 0.00 4 1017.5
20260508160838 27 290 3.2 16.1 0.00 0.00 0.00 4 1017.5
20260508160334 27 186 4.8 16.1 0.00 0.00 0.00 4 1017.5
20260508155835 26 200 3.2 9.7 0.00 0.00 0.00 5 1017.4
20260508154832 27 344 3.2 9.7 0.00 0.00 0.00 4 1017.4
20260508154333 26 122 3.2 11.3 0.00 0.00 0.00 4 1017.5
20260508153830 27 288 4.8 11.3 0.00 0.00 0.00 4 1017.5
20260508153335 27 295 4.8 12.9 0.00 0.00 0.00 4 1017.4
20260508152830 26 186 3.2 12.9 0.00 0.00 0.00 4 1017.4
20260508151834 26 298 3.2 8.0 0.00 0.00 0.00 5 1017.4
20260508150834 26 294 3.2 9.7 0.00 0.00 0.00 5 1017.4
20260508145832 26 218 3.2 11.3 0.00 0.00 0.00 5 1017.4
20260508145331 26 269 4.8 14.5 0.00 0.00 0.00 5 1017.4
20260508144825 26 217 6.4 14.5 0.00 0.00 0.00 6 1017.3
20260508144326 26 191 4.8 14.5 0.00 0.00 0.00 6 1017.4
20260508143829 26 134 3.2 11.3 0.00 0.00 0.00 5 1017.4
20260508143326 25 276 3.2 9.7 0.00 0.00 0.00 5 1017.4
20260508142817 25 136 4.8 9.7 0.00 0.00 0.00 5 1017.3
20260508142312 25 164 4.8 12.9 0.00 0.00 0.00 5 1017.3
20260508141807 25 169 6.4 14.5 0.00 0.00 0.00 6 1017.2
20260508141259 25 229 6.4 14.5 0.00 0.00 0.00 6 1017.0
20260508140754 24 188 6.4 14.5 0.00 0.00 0.00 7 1017.0
20260508140249 24 101 6.4 14.5 0.00 0.00 0.00 7 1016.9
20260508135742 24 174 6.4 16.1 0.00 0.00 0.00 7 1016.9
20260508135237 23 192 8.0 16.1 0.00 0.00 0.00 7 1016.9
20260508134731 23 169 6.4 16.1 0.00 0.00 0.00 7 1016.9
20260508134224 23 162 6.4 16.1 0.00 0.00 0.00 8 1016.8
20260508133718 23 159 4.8 11.3 0.00 0.00 0.00 8 1016.8
20260508133211 23 214 3.2 12.9 0.00 0.00 0.00 8 1016.8
20260508132201 22 206 3.2 11.3 0.00 0.00 0.00 8 1016.7
20260508131653 21 173 3.2 9.7 0.00 0.00 0.00 9 1016.6
20260508131148 21 199 3.2 9.7 0.00 0.00 0.00 9 1016.6
20260508130640 21 183 4.8 9.7 0.00 0.00 0.00 8 1016.6
20260508130135 21 172 3.2 9.7 0.00 0.00 0.00 8 1016.5
20260508125628 21 123 3.2 8.0 0.00 0.00 0.00 8 1016.5
20260508125124 21 247 3.2 8.0 0.00 0.00 0.00 8 1016.5
20260508124110 21 153 3.2 9.7 0.00 0.00 0.00 8 1016.4
20260508123604 21 215 3.2 9.7 0.00 0.00 0.00 8 1016.2
20260508123059 21 224 3.2 9.7 0.00 0.00 0.00 8 1016.2
20260508122551 21 169 4.8 14.5 0.00 0.00 0.00 8 1016.2
20260508121033 21 203 6.4 16.1 0.00 0.00 0.00 8 1016.2
20260508120531 21 200 6.4 16.1 0.00 0.00 0.00 8 1016.2
20260508120024 20 219 4.8 9.7 0.00 0.00 0.00 8 1016.1
20260508115519 20 208 4.8 9.7 0.00 0.00 0.00 8 1016.2
20260508115015 21 169 4.8 12.9 0.00 0.00 0.00 7 1016.1
20260508114506 21 155 4.8 12.9 0.00 0.00 0.00 7 1016.1
20260508113454 21 196 1.6 8.0 0.00 0.00 0.00 7 1016.2
20260508112946 21 240 3.2 9.7 0.00 0.00 0.00 6 1016.2
20260508112442 21 260 3.2 9.7 0.00 0.00 0.00 6 1016.2
20260508111933 21 188 4.8 16.1 0.00 0.00 0.00 6 1016.0
20260508111427 21 230 4.8 16.1 0.00 0.00 0.00 6 1016.0
20260508110922 21 164 4.8 14.5 0.00 0.00 0.00 6 1016.1
20260508110417 21 224 3.2 12.9 0.00 0.00 0.00 6 1016.1
20260508105909 21 147 3.2 8.0 0.00 0.00 0.00 6 1016.1
20260508105406 21 210 3.2 12.9 0.00 0.00 0.00 6 1016.2
20260508104900 22 292 4.8 16.1 0.00 0.00 0.00 6 1016.4
20260508104359 22 274 6.4 19.3 0.00 0.00 0.00 6 1016.2
20260508103845 22 227 4.8 19.3 0.00 0.00 0.00 6 1016.4
20260508102833 21 284 3.2 14.5 0.00 0.00 0.00 6 1016.2
20260508102330 21 252 3.2 11.3 0.00 0.00 0.00 6 1016.1
20260508101315 21 255 3.2 6.4 0.00 0.00 0.00 6 1016.2
20260508100810 21 226 3.2 11.3 0.00 0.00 0.00 6 1016.2
20260508095252 21 233 3.2 8.0 0.00 0.00 0.00 5 1016.2
20260508094746 21 175 3.2 6.4 0.00 0.00 0.00 4 1016.4
20260508094246 21 163 3.2 6.4 0.00 0.00 0.00 3 1016.4
20260508093745 21 216 1.6 6.4 0.00 0.00 0.00 3 1016.4
20260508092747 21 185 3.2 11.3 0.00 0.00 0.00 2 1016.5
20260508092246 21 246 3.2 11.3 0.00 0.00 0.00 2 1016.2
20260508091743 21 133 1.6 9.7 0.00 0.00 0.00 2 1016.2
20260508090242 22 188 3.2 16.1 0.00 0.00 0.00 2 1016.2
20260508085741 21 221 1.6 16.1 0.00 0.00 0.00 2 1016.4
20260508085241 21 125 1.6 9.7 0.00 0.00 0.00 1 1016.4
20260508084746 22 103 1.6 11.3 0.00 0.00 0.00 1 1016.5
20260508083745 22 242 6.4 16.1 0.00 0.00 0.00 2 1016.5
20260508083248 22 282 8.0 17.7 0.00 0.00 0.00 2 1016.5
20260508082738 22 101 6.4 17.7 0.00 0.00 0.00 1 1016.6
20260508082229 22 220 6.4 17.7 0.00 0.00 0.00 1 1016.5
20260508081722 22 283 6.4 17.7 0.00 0.00 0.00 2 1016.5
20260508081221 22 267 6.4 16.1 0.00 0.00 0.00 2 1016.5
20260508080719 22 221 6.4 17.7 0.00 0.00 0.00 2 1016.6